EUTELSAT 36B

Last updated on Sun Apr 12 2026 00:02:52 GMT+0000 (Coordinated Universal Time)

1 36101U 09065A 26101.45940839 .00000114 00000+0 00000+0 0 9997 2 36101 0.3217 79.2345 0005917 303.5546 32.7794 1.00270145 60035
UTC large
Height (km)
Speed (km/s)
/
Latitude / Longitude
Inclination (degrees)
Orbital Period (minutes)
Azimuth
Elevation
Range (km)
Doppler Factor

Next 0 passes for location: London (51.5072 / 0.1276)

Sorry there are no passes over London.
EUTELSAT 36B